Location: *
(37.4917°N, 71.5558°E)
Time: 21:25:19
(UTC+00:00)

ATLAS 5 CENTAUR R/B - Pass Details

Date: 09 April 2020
Orbit: 543 x 1116 km, 63.4° (Epoch: 01 May)

Event Time Altitude Azimuth Distance (km) Brightness Sun altitude
Rises 14:50:47 0° 224° (SW) 2,695 5.2 -13.6°
Reaches altitude 10° 14:52:57 10° 229° (SW) 1,825 4.3 -14.0°
Maximum altitude 14:56:53 51° 306° (NW) 734 2.4 -14.7°
Drops below altitude 10° 15:01:15 10° 23° (NNE) 2,013 4.2 -15.5°
Sets 15:03:45 0° 29° (NNE) 3,007 5.0 -15.9°
